When you browse on this site, cookies collect data to enhance your experience and personalize the content and advertising you see.
Visit our Privacy Policy to learn more. By continuing to use the site, you agree to this use of cookies and data.
  • In Netherlands
  • List of Countries
  • For 7 days
  • Water Temperature
  • Weather Map
  • Weather Widgets
  • user-avatar
    Login

    Hourly Weather Bandar Seri Begawan

    Today, 4 June, Thursday

    Time Temperature Precipitation Wind Pressure Humidity
    00:00 +28°C° 0.1 mm 1 mps 755 mmHg 84%
    01:00 +28°C° 0.1 mm 1 mps 755 mmHg 86%
    02:00 +25°C° 0 mm 0 mps 755 mmHg 86%
    03:00 +25°C° 1.1 mm 0 mps 755 mmHg 88%
    04:00 +27°C° 1.1 mm 1 mps 755 mmHg 90%
    05:00 +26°C° 1.1 mm 1 mps 755 mmHg 93%
    06:00 +27°C° 0.1 mm 1 mps 755 mmHg 92%
    07:00 +28°C° 0.1 mm 1 mps 756 mmHg 92%
    08:00 +29°C° 0 mm 1 mps 756 mmHg 90%
    09:00 +31°C° 0.1 mm 1 mps 756 mmHg 81%
    10:00 +33°C° 0.1 mm 1 mps 756 mmHg 72%
    11:00 +34°C° 0.1 mm 1 mps 756 mmHg 63%
    12:00 +34°C° 0.8 mm 1 mps 755 mmHg 68%
    13:00 +34°C° 0.8 mm 2 mps 754 mmHg 74%
    14:00 +34°C° 0 mm 3 mps 754 mmHg 73%
    15:00 +33°C° 1.2 mm 3 mps 753 mmHg 77%
    16:00 +31°C° 1.2 mm 3 mps 753 mmHg 81%
    17:00 +30°C° 1.2 mm 3 mps 753 mmHg 85%
    18:00 +30°C° 0.6 mm 2 mps 753 mmHg 86%
    19:00 +29°C° 0.6 mm 2 mps 754 mmHg 87%
    20:00 +28°C° 0.6 mm 1 mps 754 mmHg 88%
    21:00 +28°C° 0.1 mm 1 mps 755 mmHg 88%
    22:00 +28°C° 0.1 mm 1 mps 755 mmHg 88%
    23:00 +28°C° 0.1 mm 1 mps 756 mmHg 88%

    Tomorrow, 5 June, Friday

    Time Temperature Precipitation Wind Pressure Humidity
    00:00 +28°C° 0.1 mm 1 mps 755 mmHg 89%
    01:00 +27°C° 0.1 mm 1 mps 755 mmHg 89%
    02:00 +27°C° 0.1 mm 1 mps 755 mmHg 90%
    03:00 +27°C° 0.1 mm 1 mps 755 mmHg 91%
    04:00 +27°C° 0.1 mm 1 mps 754 mmHg 92%
    05:00 +26°C° 0.1 mm 1 mps 754 mmHg 93%
    06:00 +27°C° 0 mm 1 mps 755 mmHg 91%
    07:00 +28°C° 0 mm 1 mps 755 mmHg 89%
    08:00 +29°C° 0 mm 1 mps 755 mmHg 87%
    09:00 +31°C° 0 mm 1 mps 755 mmHg 78%
    10:00 +33°C° 0 mm 1 mps 755 mmHg 69%
    11:00 +33°C° 0 mm 0 mps 755 mmHg 60%
    12:00 +34°C° 0.3 mm 1 mps 754 mmHg 64%
    13:00 +34°C° 0.3 mm 2 mps 754 mmHg 69%
    14:00 +34°C° 0.3 mm 2 mps 753 mmHg 73%
    15:00 +33°C° 0.6 mm 3 mps 753 mmHg 76%
    16:00 +33°C° 0.6 mm 3 mps 753 mmHg 78%
    17:00 +31°C° 0.6 mm 3 mps 753 mmHg 80%
    18:00 +30°C° 2.1 mm 2 mps 754 mmHg 84%
    19:00 +29°C° 2.1 mm 2 mps 754 mmHg 87%
    20:00 +28°C° 2.1 mm 2 mps 755 mmHg 91%
    21:00 +28°C° 1.2 mm 2 mps 755 mmHg 91%
    22:00 +27°C° 1.2 mm 1 mps 755 mmHg 92%
    23:00 +27°C° 1.2 mm 1 mps 756 mmHg 92%

    Day after tomorrow, 6 June, Saturday

    Time Temperature Precipitation Wind Pressure Humidity
    00:00 +27°C° 0.4 mm 1 mps 755 mmHg 93%
    01:00 +27°C° 0.4 mm 1 mps 755 mmHg 94%
    02:00 +27°C° 0.4 mm 1 mps 755 mmHg 95%
    03:00 +26°C° 0.4 mm 1 mps 754 mmHg 95%
    04:00 +26°C° 0.4 mm 2 mps 754 mmHg 95%
    05:00 +26°C° 0.4 mm 2 mps 754 mmHg 95%
    06:00 +27°C° 0.4 mm 2 mps 755 mmHg 94%
    07:00 +27°C° 0.4 mm 2 mps 755 mmHg 93%
    08:00 +28°C° 0.4 mm 2 mps 755 mmHg 92%
    09:00 +29°C° 0.7 mm 2 mps 755 mmHg 85%
    10:00 +31°C° 0.7 mm 2 mps 755 mmHg 78%
    11:00 +32°C° 0.7 mm 1 mps 755 mmHg 72%
    12:00 +32°C° 0.3 mm 2 mps 754 mmHg 70%
    13:00 +34°C° 0.3 mm 2 mps 754 mmHg 69%
    14:00 +34°C° 0.3 mm 3 mps 753 mmHg 67%
    15:00 +33°C° 0.6 mm 3 mps 753 mmHg 71%
    16:00 +32°C° 0.6 mm 2 mps 753 mmHg 75%
    17:00 +31°C° 0.6 mm 2 mps 753 mmHg 78%
    18:00 +30°C° 0.9 mm 2 mps 753 mmHg 82%
    19:00 +29°C° 0.9 mm 2 mps 754 mmHg 86%
    20:00 +28°C° 0.9 mm 1 mps 755 mmHg 89%
    21:00 +28°C° 1.5 mm 1 mps 755 mmHg 90%
    22:00 +27°C° 1.5 mm 1 mps 755 mmHg 91%
    23:00 +27°C° 1.5 mm 1 mps 755 mmHg 92%

    7 June, Sunday

    Time Temperature Precipitation Wind Pressure Humidity
    00:00 +27°C° 1.9 mm 1 mps 755 mmHg 92%
    01:00 +27°C° 1.9 mm 2 mps 755 mmHg 92%
    02:00 +27°C° 1.9 mm 2 mps 755 mmHg 92%
    03:00 +27°C° 2.3 mm 2 mps 755 mmHg 92%
    04:00 +26°C° 2.3 mm 2 mps 755 mmHg 93%
    05:00 +26°C° 2.3 mm 2 mps 755 mmHg 93%
    06:00 +26°C° 1.8 mm 2 mps 755 mmHg 93%
    07:00 +26°C° 1.8 mm 1 mps 756 mmHg 94%
    08:00 +26°C° 1.8 mm 1 mps 756 mmHg 94%
    09:00 +26°C° 1.4 mm 1 mps 756 mmHg 94%
    10:00 +26°C° 1.4 mm 1 mps 756 mmHg 95%
    11:00 +26°C° 1.4 mm 1 mps 756 mmHg 95%
    12:00 +26°C° 0.4 mm 1 mps 756 mmHg 94%
    13:00 +26°C° 0.4 mm 2 mps 755 mmHg 93%
    14:00 +26°C° 0.4 mm 2 mps 755 mmHg 92%
    15:00 +26°C° 0.2 mm 2 mps 755 mmHg 92%
    16:00 +26°C° 0.2 mm 2 mps 755 mmHg 93%
    17:00 +26°C° 0.2 mm 2 mps 754 mmHg 93%
    18:00 +26°C° 0.1 mm 2 mps 755 mmHg 94%
    19:00 +25°C° 0.1 mm 3 mps 755 mmHg 94%
    20:00 +25°C° 0.1 mm 3 mps 756 mmHg 94%
    21:00 +25°C° 0 mm 3 mps 756 mmHg 93%
    22:00 +25°C° 0 mm 3 mps 756 mmHg 93%
    23:00 +25°C° 0 mm 4 mps 757 mmHg 93%

    8 June, Monday

    Time Temperature Precipitation Wind Pressure Humidity
    00:00 +25°C° 0 mm 3 mps 756 mmHg 93%
    01:00 +25°C° 0 mm 2 mps 755 mmHg 93%
    02:00 +25°C° 0 mm 2 mps 755 mmHg 92%
    03:00 +25°C° 0 mm 2 mps 754 mmHg 91%
    04:00 +25°C° 0 mm 2 mps 754 mmHg 90%
    05:00 +25°C° 0 mm 2 mps 754 mmHg 89%
    06:00 +26°C° 0 mm 1 mps 754 mmHg 85%
    07:00 +27°C° 0 mm 1 mps 755 mmHg 82%
    08:00 +28°C° 0 mm 1 mps 755 mmHg 78%
    09:00 +30°C° 0 mm 1 mps 755 mmHg 69%
    10:00 +32°C° 0 mm 1 mps 755 mmHg 59%
    11:00 +34°C° 0 mm 1 mps 755 mmHg 50%
    12:00 +34°C° 0 mm 1 mps 754 mmHg 49%
    13:00 +35°C° 0 mm 2 mps 754 mmHg 49%
    14:00 +36°C° 0 mm 2 mps 753 mmHg 48%
    15:00 +35°C° 0 mm 2 mps 753 mmHg 53%
    16:00 +34°C° 0 mm 2 mps 753 mmHg 57%
    17:00 +32°C° 0 mm 2 mps 753 mmHg 61%
    18:00 +31°C° 0 mm 2 mps 753 mmHg 67%
    19:00 +30°C° 0 mm 2 mps 754 mmHg 74%
    20:00 +28°C° 0 mm 2 mps 754 mmHg 80%
    21:00 +28°C° 0 mm 2 mps 755 mmHg 81%
    22:00 +28°C° 0 mm 1 mps 755 mmHg 82%
    23:00 +28°C° 0 mm 1 mps 755 mmHg 83%

    9 June, Tuesday

    Time Temperature Precipitation Wind Pressure Humidity
    00:00 +27°C° 0 mm 1 mps 755 mmHg 84%
    01:00 +27°C° 0 mm 1 mps 755 mmHg 84%
    02:00 +27°C° 0 mm 1 mps 754 mmHg 85%
    03:00 +27°C° 0 mm 1 mps 754 mmHg 86%
    04:00 +26°C° 0 mm 1 mps 754 mmHg 87%
    05:00 +26°C° 0 mm 1 mps 754 mmHg 87%
    06:00 +27°C° 0 mm 1 mps 754 mmHg 83%
    07:00 +28°C° 0 mm 1 mps 755 mmHg 78%
    08:00 +29°C° 0 mm 1 mps 755 mmHg 73%
    09:00 +31°C° 0 mm 1 mps 755 mmHg 67%
    10:00 +32°C° 0 mm 1 mps 755 mmHg 61%
    11:00 +34°C° 0 mm 1 mps 755 mmHg 56%
    12:00 +34°C° 0.1 mm 1 mps 754 mmHg 59%
    13:00 +34°C° 0.1 mm 2 mps 754 mmHg 61%
    14:00 +34°C° 0.1 mm 3 mps 753 mmHg 64%
    15:00 +32°C° 0.5 mm 2 mps 753 mmHg 68%
    16:00 +32°C° 0.5 mm 2 mps 753 mmHg 72%
    17:00 +31°C° 0.5 mm 2 mps 753 mmHg 76%
    18:00 +30°C° 0.2 mm 2 mps 753 mmHg 79%
    19:00 +29°C° 0.2 mm 1 mps 754 mmHg 82%
    20:00 +28°C° 0.2 mm 1 mps 754 mmHg 84%
    21:00 +28°C° 0 mm 1 mps 755 mmHg 85%
    22:00 +28°C° 0 mm 1 mps 755 mmHg 86%
    23:00 +27°C° 0 mm 1 mps 756 mmHg 87%
    Show more